Zephyrhills, FL

12:41 PM EST on December 07, 2019 (GMT -0500)
Zephyrhills Municipal

Weather History for KZPH - September, 2019

Change the Weather History Date:

Saturday, September 14, 2019

  Actual Average (KPCM) Record (KPCM)
Temperature  
Mean Temperature 82 °F -  
Max Temperature 90 °F 90 °F 95 °F (1951)
Min Temperature 73 °F 70 °F 64 °F (1938)
Cooling Degree Days 16    
Growing Degree Days 32 (Base 50)    
Moisture  
Dew Point 74 °F    
Average Humidity 83    
Maximum Humidity 98    
Minimum Humidity 59    
Precipitation  
Precipitation 0.00 in - - ()
Sea Level Pressure  
Sea Level Pressure 30.01 in    
Wind  
Wind Speed 9 mph (NNE)    
Max Wind Speed 22 mph    
Max Gust Speed 32 mph    
Visibility 10 miles    
Events Rain    
Averages and records for this station are not official NWS values.
T = Trace of Precipitation, MM = Missing Value Source: NWS Daily Summary

Daily Weather History Graph

Daily Weather History Graph

Search for Another Location

Airport or City:

Astronomy

Sep. 14, 2019 Rise Set
Actual Time 7:13 AM EDT 7:34 PM EDT
Civil Twilight 6:49 AM EDT 7:58 PM EDT
Nautical Twilight 6:22 AM EDT 8:25 PM EDT
Astronomical Twilight 5:54 AM EDT 8:53 PM EDT
Moon 8:14 PM EDT (9/14) 7:29 AM EDT (9/14)
Length of Visible Light 13h 08m
Length of Day
12h 21m
Full, 100% of the Moon is Illuminated
Sep 14
Full
Sep 21
Last Quarter
Sep 28
New
Oct 5
First Quarter
Oct 13
Full

Hourly Weather History & Observations

Time (EDT) Temp. Heat Index Dew Point Humidity Pressure Visibility Wind Dir Wind Speed Gust Speed Precip Events Conditions
12:15 AM 75.9 °F - 73.8 °F 93% 30.04 in 10.0 mi NNE 6.9 mph - N/A   Clear
12:35 AM 75.7 °F - 73.8 °F 94% 30.04 in 10.0 mi NNE 6.9 mph - N/A   Clear
12:55 AM 75.9 °F - 73.8 °F 93% 30.04 in 10.0 mi NNE 5.8 mph - N/A   Clear
1:15 AM 75.7 °F - 73.6 °F 93% 30.04 in 10.0 mi NNE 4.6 mph - N/A   Clear
1:35 AM 75.6 °F - 73.4 °F 93% 30.04 in 10.0 mi NNE 8.1 mph - N/A   Clear
1:55 AM 75.4 °F - 73.2 °F 93% 30.05 in 10.0 mi NNE 6.9 mph - N/A   Clear
2:15 AM 75.0 °F - 73.2 °F 94% 30.05 in 10.0 mi North 5.8 mph - N/A   Clear
2:35 AM 74.8 °F - 73.0 °F 94% 30.04 in 10.0 mi North 6.9 mph - N/A   Clear
2:55 AM 74.5 °F - 72.9 °F 95% 30.02 in 10.0 mi North 8.1 mph - N/A   Clear
3:35 AM 74.1 °F - 72.9 °F 96% 30.01 in 10.0 mi North 8.1 mph - N/A   Clear
3:55 AM 73.9 °F - 72.9 °F 96% 30.00 in 10.0 mi NNE 6.9 mph - N/A   Clear
4:15 AM 74.3 °F - 73.0 °F 96% 30.00 in 10.0 mi NNE 9.2 mph - N/A   Clear
4:35 AM 74.5 °F - 73.2 °F 96% 29.99 in 10.0 mi NNE 9.2 mph - N/A   Clear
4:55 AM 74.7 °F - 73.0 °F 95% 29.99 in 10.0 mi NNE 10.4 mph - N/A   Clear
5:15 AM 74.5 °F - 73.0 °F 95% 30.00 in 10.0 mi NNE 6.9 mph - N/A   Clear
5:35 AM 74.3 °F - 73.2 °F 96% 30.00 in 10.0 mi NNE 4.6 mph - N/A   Clear
5:55 AM 73.9 °F - 73.0 °F 97% 30.00 in 10.0 mi NNE 5.8 mph - N/A   Clear
6:15 AM 74.1 °F - 73.2 °F 97% 30.00 in 10.0 mi North 5.8 mph - N/A   Clear
6:35 AM 73.9 °F - 73.0 °F 97% 30.01 in 10.0 mi North 4.6 mph - N/A   Clear
6:55 AM 73.8 °F - 73.0 °F 98% 30.02 in 10.0 mi North 6.9 mph - N/A   Clear
7:15 AM 73.9 °F - 73.2 °F 98% 30.02 in 7.0 mi North 6.9 mph - N/A   Clear
7:35 AM 73.9 °F - 73.2 °F 98% 30.01 in 7.0 mi NNE 9.2 mph - N/A   Clear
7:55 AM 74.5 °F - 73.4 °F 96% 30.01 in 10.0 mi NNE 10.4 mph - N/A   Clear
8:15 AM 75.6 °F - 73.9 °F 95% 30.01 in 10.0 mi NNE 9.2 mph - N/A   Clear
8:35 AM 77.2 °F - 74.5 °F 91% 30.02 in 10.0 mi North - - N/A   Clear
8:55 AM 78.8 °F - 75.0 °F 88% 30.03 in 10.0 mi NNE 9.2 mph - N/A   Clear
9:15 AM 80.4 °F 86.1 °F 75.7 °F 86% 30.03 in 10.0 mi NE 10.4 mph 18.4 mph N/A   Clear
9:35 AM 81.9 °F 89.2 °F 76.1 °F 83% 30.03 in 10.0 mi NE 15.0 mph - N/A   Scattered Clouds
9:55 AM 83.5 °F 91.9 °F 76.1 °F 78% 30.03 in 10.0 mi NE 12.7 mph 18.4 mph N/A   Scattered Clouds
10:15 AM 85.3 °F 95.0 °F 76.3 °F 74% 30.03 in 10.0 mi ENE 10.4 mph 19.6 mph N/A   Scattered Clouds
10:35 AM 85.3 °F 93.7 °F 75.0 °F 71% 30.03 in 10.0 mi NE 12.7 mph 24.2 mph N/A   Mostly Cloudy
10:55 AM 86.4 °F 95.1 °F 74.8 °F 68% 30.04 in 10.0 mi ENE 20.7 mph 25.3 mph N/A   Mostly Cloudy
11:15 AM 86.2 °F 94.6 °F 74.7 °F 68% 30.03 in 10.0 mi ENE 19.6 mph 25.3 mph N/A   Scattered Clouds
11:35 AM 87.6 °F 97.1 °F 75.2 °F 66% 30.03 in 10.0 mi ENE 15.0 mph 21.9 mph N/A   Scattered Clouds
12:15 PM 89.6 °F 100.4 °F 75.6 °F 63% 30.02 in 10.0 mi NNE 15.0 mph 23.0 mph N/A   Mostly Cloudy
12:35 PM 87.1 °F 96.8 °F 75.2 °F 68% 30.02 in 10.0 mi NE 13.8 mph 19.6 mph N/A   Overcast
12:55 PM 81.9 °F 88.2 °F 74.8 °F 79% 30.03 in 10.0 mi ENE 16.1 mph 32.2 mph N/A Rain Light Rain
1:15 PM 84.9 °F 94.1 °F 75.7 °F 74% 30.02 in 10.0 mi NE 11.5 mph - N/A   Mostly Cloudy
1:55 PM 88.5 °F 98.3 °F 74.8 °F 64% 29.99 in 10.0 mi ENE 18.4 mph 26.5 mph N/A   Scattered Clouds
2:15 PM 88.7 °F 98.7 °F 75.2 °F 64% 29.99 in 10.0 mi NE 12.7 mph 27.6 mph N/A   Scattered Clouds
2:35 PM 89.8 °F 99.7 °F 74.8 °F 61% 29.98 in 10.0 mi NE 17.3 mph 20.7 mph N/A   Scattered Clouds
2:55 PM 89.2 °F 99.0 °F 74.8 °F 62% 29.98 in 10.0 mi ENE 18.4 mph 24.2 mph N/A   Scattered Clouds
3:15 PM 90.1 °F 100.6 °F 75.0 °F 61% 29.97 in 10.0 mi ENE 15.0 mph 23.0 mph N/A   Scattered Clouds
3:35 PM 85.5 °F 95.4 °F 76.3 °F 74% 29.96 in 10.0 mi North 10.4 mph - N/A   Scattered Clouds
3:55 PM 89.6 °F 98.2 °F 73.8 °F 59% 29.96 in 10.0 mi NE 18.4 mph - N/A   Clear
4:15 PM 89.6 °F 98.2 °F 73.6 °F 59% 29.96 in 10.0 mi NE 21.9 mph 28.8 mph N/A   Scattered Clouds
4:35 PM 87.4 °F 95.8 °F 73.8 °F 64% 29.97 in 10.0 mi NE 15.0 mph 23.0 mph N/A   Scattered Clouds
4:55 PM 86.2 °F 95.5 °F 75.4 °F 70% 29.97 in 10.0 mi NNE 12.7 mph 20.7 mph N/A   Scattered Clouds
5:15 PM 86.0 °F 95.1 °F 75.4 °F 70% 29.96 in 10.0 mi NNE 10.4 mph - N/A   Scattered Clouds
5:35 PM 85.6 °F 94.6 °F 75.4 °F 71% 29.96 in 10.0 mi NNE 11.5 mph - N/A   Scattered Clouds
5:55 PM 85.8 °F 94.6 °F 75.2 °F 70% 29.96 in 10.0 mi NNE 13.8 mph - N/A   Clear
6:15 PM 85.5 °F 93.8 °F 74.8 °F 70% 29.95 in 10.0 mi NNE 13.8 mph - N/A   Clear
6:55 PM 83.1 °F 90.1 °F 74.5 °F 75% 29.97 in 10.0 mi NE 13.8 mph 20.7 mph N/A   Scattered Clouds
7:15 PM 82.0 °F 87.7 °F 73.6 °F 75% 29.97 in 10.0 mi NE 15.0 mph 24.2 mph N/A   Clear
7:35 PM 81.5 °F 87.2 °F 74.1 °F 78% 29.97 in 10.0 mi NE 12.7 mph 19.6 mph N/A   Clear
7:55 PM 81.0 °F 86.3 °F 74.1 °F 80% 29.98 in 10.0 mi NE 11.5 mph - N/A   Clear
8:15 PM 80.6 °F 85.7 °F 74.1 °F 81% 29.99 in 10.0 mi NE 9.2 mph - N/A   Clear
8:35 PM 80.2 °F 85.2 °F 74.5 °F 83% 29.99 in 10.0 mi NNE 8.1 mph - N/A   Scattered Clouds
8:55 PM 79.9 °F - 74.1 °F 82% 30.00 in 10.0 mi NNE 9.2 mph - N/A   Scattered Clouds
9:15 PM 79.2 °F - 74.1 °F 84% 30.00 in 10.0 mi NE 9.2 mph - N/A   Clear
9:35 PM 79.2 °F - 74.3 °F 85% 30.01 in 10.0 mi NE 10.4 mph - N/A   Clear
9:55 PM 78.4 °F - 74.7 °F 88% 30.02 in 10.0 mi NNE 9.2 mph - N/A   Clear
10:15 PM 78.1 °F - 74.8 °F 90% 30.02 in 10.0 mi NNE 8.1 mph - N/A   Scattered Clouds
10:35 PM 77.7 °F - 75.0 °F 91% 30.02 in 10.0 mi NNE 6.9 mph - N/A   Scattered Clouds
10:55 PM 77.2 °F - 75.0 °F 93% 30.01 in 10.0 mi North - - N/A   Scattered Clouds
11:15 PM 77.2 °F - 75.0 °F 93% 30.01 in 10.0 mi North - - N/A   Scattered Clouds
11:35 PM 77.2 °F - 75.0 °F 93% 30.02 in 10.0 mi North - - N/A   Clear
11:55 PM 76.8 °F - 75.0 °F 94% 30.01 in 10.0 mi NNE 4.6 mph - N/A   Clear